Year,Month,Day,Hour,Minute,Value (Times are PST for windspeed in km/hr)
2011,07,07,00,00,1.90
2011,07,07,00,01,1.70
2011,07,07,00,02,2.10
2011,07,07,00,03,1.00
2011,07,07,00,04,1.50
2011,07,07,00,05,3.50
2011,07,07,00,06,1.20
2011,07,07,00,07,0.40
2011,07,07,00,08,2.80
2011,07,07,00,09,2.00
2011,07,07,00,10,0.20
2011,07,07,00,11,0.00
2011,07,07,00,12,0.10
2011,07,07,00,13,0.00
2011,07,07,00,14,0.00
2011,07,07,00,15,0.10
2011,07,07,00,16,0.00
2011,07,07,00,17,0.00
2011,07,07,00,18,0.00
2011,07,07,00,19,0.00
2011,07,07,00,20,0.00
2011,07,07,00,21,0.00
2011,07,07,00,22,0.00
2011,07,07,00,23,0.00
2011,07,07,00,24,0.00
2011,07,07,00,25,0.00
2011,07,07,00,26,0.00
2011,07,07,00,27,0.00
2011,07,07,00,28,0.00
2011,07,07,00,29,0.10
2011,07,07,00,30,0.00
2011,07,07,00,31,0.00
2011,07,07,00,32,0.00
2011,07,07,00,33,0.00
2011,07,07,00,34,0.20
2011,07,07,00,35,0.00
2011,07,07,00,36,0.00
2011,07,07,00,37,0.10
2011,07,07,00,38,0.10
2011,07,07,00,39,0.30
2011,07,07,00,40,1.80
2011,07,07,00,41,0.60
2011,07,07,00,42,0.00
2011,07,07,00,43,0.70
2011,07,07,00,44,0.80
2011,07,07,00,45,2.30
2011,07,07,00,46,2.60
2011,07,07,00,47,1.60
2011,07,07,00,48,0.20
2011,07,07,00,49,1.40
2011,07,07,00,50,0.10
2011,07,07,00,51,0.20
2011,07,07,00,52,0.30
2011,07,07,00,53,0.20
2011,07,07,00,54,0.40
2011,07,07,00,55,1.00
2011,07,07,00,56,0.70
2011,07,07,00,57,1.90
2011,07,07,00,58,0.00
2011,07,07,00,59,0.20
2011,07,07,01,00,1.70
2011,07,07,01,01,0.20
2011,07,07,01,02,0.20
2011,07,07,01,03,0.00
2011,07,07,01,04,0.50
2011,07,07,01,05,0.00
2011,07,07,01,06,0.10
2011,07,07,01,07,0.10
2011,07,07,01,08,0.10
2011,07,07,01,09,0.10
2011,07,07,01,10,0.20
2011,07,07,01,11,0.60
2011,07,07,01,12,1.70
2011,07,07,01,13,2.30
2011,07,07,01,14,1.00
2011,07,07,01,15,0.50
2011,07,07,01,16,0.10
2011,07,07,01,17,0.70
2011,07,07,01,18,0.20
2011,07,07,01,19,1.90
2011,07,07,01,20,3.10
2011,07,07,01,21,2.90
2011,07,07,01,22,1.70
2011,07,07,01,23,2.70
2011,07,07,01,24,2.10
2011,07,07,01,25,1.80
2011,07,07,01,26,0.60
2011,07,07,01,27,1.40
2011,07,07,01,28,1.90
2011,07,07,01,29,2.00
2011,07,07,01,30,2.50
2011,07,07,01,31,0.30
2011,07,07,01,32,2.70
2011,07,07,01,33,2.30
2011,07,07,01,34,1.90
2011,07,07,01,35,0.90
2011,07,07,01,36,0.70
2011,07,07,01,37,1.40
2011,07,07,01,38,0.10
2011,07,07,01,39,1.00
2011,07,07,01,40,0.50
2011,07,07,01,41,0.90
2011,07,07,01,42,2.30
2011,07,07,01,43,1.80
2011,07,07,01,44,1.00
2011,07,07,01,45,1.40
2011,07,07,01,46,0.10
2011,07,07,01,47,0.30
2011,07,07,01,48,1.10
2011,07,07,01,49,0.60
2011,07,07,01,50,0.90
2011,07,07,01,51,2.90
2011,07,07,01,52,4.70
2011,07,07,01,53,1.00
2011,07,07,01,54,1.50
2011,07,07,01,55,0.90
2011,07,07,01,56,0.10
2011,07,07,01,57,1.40
2011,07,07,01,58,1.70
2011,07,07,01,59,2.40
2011,07,07,02,00,1.20
2011,07,07,02,01,3.00
2011,07,07,02,02,0.20
2011,07,07,02,03,1.20
2011,07,07,02,04,0.80
2011,07,07,02,05,1.30
2011,07,07,02,06,1.10
2011,07,07,02,07,1.80
2011,07,07,02,08,1.70
2011,07,07,02,09,2.30
2011,07,07,02,10,2.70
2011,07,07,02,11,3.60
2011,07,07,02,12,3.30
2011,07,07,02,13,1.00
2011,07,07,02,14,3.90
2011,07,07,02,15,0.80
2011,07,07,02,16,0.10
2011,07,07,02,17,0.90
2011,07,07,02,18,1.80
2011,07,07,02,19,0.20
2011,07,07,02,20,0.40
2011,07,07,02,21,5.60
2011,07,07,02,22,6.20
2011,07,07,02,23,5.60
2011,07,07,02,24,6.20
2011,07,07,02,25,5.90
2011,07,07,02,26,6.80
2011,07,07,02,27,5.10
2011,07,07,02,28,5.10
2011,07,07,02,29,3.70
2011,07,07,02,30,6.80
2011,07,07,02,31,7.00
2011,07,07,02,32,5.00
2011,07,07,02,33,3.50
2011,07,07,02,34,7.80
2011,07,07,02,35,3.40
2011,07,07,02,36,3.10
2011,07,07,02,37,1.10
2011,07,07,02,38,3.70
2011,07,07,02,39,0.90
2011,07,07,02,40,2.10
2011,07,07,02,41,2.90
2011,07,07,02,42,1.90
2011,07,07,02,43,1.80
2011,07,07,02,44,3.60
2011,07,07,02,45,1.80
2011,07,07,02,46,3.30
2011,07,07,02,47,3.80
2011,07,07,02,48,1.90
2011,07,07,02,49,3.90
2011,07,07,02,50,1.90
2011,07,07,02,51,3.60
2011,07,07,02,52,5.00
2011,07,07,02,53,1.90
2011,07,07,02,54,2.40
2011,07,07,02,55,5.80
2011,07,07,02,56,4.60
2011,07,07,02,57,3.10
2011,07,07,02,58,1.90
2011,07,07,02,59,1.20
2011,07,07,03,00,3.00
2011,07,07,03,01,0.60
2011,07,07,03,02,1.20
2011,07,07,03,03,1.60
2011,07,07,03,04,1.90
2011,07,07,03,05,2.50
2011,07,07,03,06,2.70
2011,07,07,03,07,1.90
2011,07,07,03,08,1.80
2011,07,07,03,09,0.70
2011,07,07,03,10,1.90
2011,07,07,03,11,1.40
2011,07,07,03,12,2.00
2011,07,07,03,13,1.20
2011,07,07,03,14,1.80
2011,07,07,03,15,7.60
2011,07,07,03,16,4.10
2011,07,07,03,17,1.80
2011,07,07,03,18,4.70
2011,07,07,03,19,3.90
2011,07,07,03,20,2.90
2011,07,07,03,21,3.90
2011,07,07,03,22,5.90
2011,07,07,03,23,4.60
2011,07,07,03,24,6.40
2011,07,07,03,25,5.40
2011,07,07,03,26,3.30
2011,07,07,03,27,5.60
2011,07,07,03,28,1.30
2011,07,07,03,29,2.90
2011,07,07,03,30,5.20
2011,07,07,03,31,5.60
2011,07,07,03,32,1.30
2011,07,07,03,33,2.60
2011,07,07,03,34,3.70
2011,07,07,03,35,3.50
2011,07,07,03,36,2.70
2011,07,07,03,37,4.40
2011,07,07,03,38,3.10
2011,07,07,03,39,2.60
2011,07,07,03,40,4.40
2011,07,07,03,41,3.60
2011,07,07,03,42,1.50
2011,07,07,03,43,3.50
2011,07,07,03,44,4.70
2011,07,07,03,45,1.00
2011,07,07,03,46,2.60
2011,07,07,03,47,3.20
2011,07,07,03,48,3.10
2011,07,07,03,49,4.10
2011,07,07,03,50,2.70
2011,07,07,03,51,3.10
2011,07,07,03,52,1.80
2011,07,07,03,53,2.80
2011,07,07,03,54,2.30
2011,07,07,03,55,3.60
2011,07,07,03,56,2.00
2011,07,07,03,57,5.80
2011,07,07,03,58,3.80
2011,07,07,03,59,3.60
2011,07,07,04,00,3.10
2011,07,07,04,01,4.90
2011,07,07,04,02,4.20
2011,07,07,04,03,1.60
2011,07,07,04,04,1.10
2011,07,07,04,05,2.20
2011,07,07,04,06,6.50
2011,07,07,04,07,2.40
2011,07,07,04,08,4.20
2011,07,07,04,09,5.90
2011,07,07,04,10,4.80
2011,07,07,04,11,3.90
2011,07,07,04,12,4.10
2011,07,07,04,13,3.90
2011,07,07,04,14,7.40
2011,07,07,04,15,6.60
2011,07,07,04,16,4.90
2011,07,07,04,17,3.70
2011,07,07,04,18,5.60
2011,07,07,04,19,2.20
2011,07,07,04,20,4.60
2011,07,07,04,21,5.30
2011,07,07,04,22,3.30
2011,07,07,04,23,6.60
2011,07,07,04,24,5.40
2011,07,07,04,25,6.90
2011,07,07,04,26,3.50
2011,07,07,04,27,4.20
2011,07,07,04,28,1.50
2011,07,07,04,29,1.30
2011,07,07,04,30,2.00
2011,07,07,04,31,3.00
2011,07,07,04,32,4.70
2011,07,07,04,33,5.80
2011,07,07,04,34,3.30
2011,07,07,04,35,2.90
2011,07,07,04,36,1.80
2011,07,07,04,37,6.90
2011,07,07,04,38,1.50
2011,07,07,04,39,3.70
2011,07,07,04,40,3.80
2011,07,07,04,41,4.20
2011,07,07,04,42,4.80
2011,07,07,04,43,7.00
2011,07,07,04,44,6.10
2011,07,07,04,45,2.60
2011,07,07,04,46,4.60
2011,07,07,04,47,5.20
2011,07,07,04,48,3.90
2011,07,07,04,49,3.10
2011,07,07,04,50,2.20
2011,07,07,04,51,4.40
2011,07,07,04,52,3.50
2011,07,07,04,53,2.70
2011,07,07,04,54,5.40
2011,07,07,04,55,2.20
2011,07,07,04,56,2.30
2011,07,07,04,57,2.00
2011,07,07,04,58,1.30
2011,07,07,04,59,2.70
2011,07,07,05,00,5.10
2011,07,07,05,01,5.00
2011,07,07,05,02,3.80
2011,07,07,05,03,7.20
2011,07,07,05,04,7.00
2011,07,07,05,05,5.10
2011,07,07,05,06,4.10
2011,07,07,05,07,3.10
2011,07,07,05,08,3.60
2011,07,07,05,09,5.30
2011,07,07,05,10,1.70
2011,07,07,05,11,4.40
2011,07,07,05,12,4.70
2011,07,07,05,13,3.20
2011,07,07,05,14,3.90
2011,07,07,05,15,4.70
2011,07,07,05,16,5.70
2011,07,07,05,17,4.00
2011,07,07,05,18,4.30
2011,07,07,05,19,4.10
2011,07,07,05,20,4.70
2011,07,07,05,21,4.00
2011,07,07,05,22,3.70
2011,07,07,05,23,2.80
2011,07,07,05,24,4.10
2011,07,07,05,25,3.50
2011,07,07,05,26,4.80
2011,07,07,05,27,2.90
2011,07,07,05,28,4.00
2011,07,07,05,29,4.30
2011,07,07,05,30,4.30
2011,07,07,05,31,2.70
2011,07,07,05,32,5.30
2011,07,07,05,33,6.20
2011,07,07,05,34,5.70
2011,07,07,05,35,4.60
2011,07,07,05,36,4.60
2011,07,07,05,37,5.10
2011,07,07,05,38,4.30
2011,07,07,05,39,2.70
2011,07,07,05,40,4.70
2011,07,07,05,41,3.80
2011,07,07,05,42,5.50
2011,07,07,05,43,5.60
2011,07,07,05,44,4.70
2011,07,07,05,45,5.10
2011,07,07,05,46,4.90
2011,07,07,05,47,5.10
2011,07,07,05,48,5.20
2011,07,07,05,49,6.20
2011,07,07,05,50,4.30
2011,07,07,05,51,3.60
2011,07,07,05,52,2.90
2011,07,07,05,53,3.50
2011,07,07,05,54,2.10
2011,07,07,05,55,3.20
2011,07,07,05,56,4.20
2011,07,07,05,57,2.70
2011,07,07,05,58,5.00
2011,07,07,05,59,5.10
2011,07,07,06,00,2.80
2011,07,07,06,01,3.10
2011,07,07,06,02,2.30
2011,07,07,06,03,2.50
2011,07,07,06,04,5.10
2011,07,07,06,05,1.60
2011,07,07,06,06,5.70
2011,07,07,06,07,3.50
2011,07,07,06,08,5.30
2011,07,07,06,09,4.50
2011,07,07,06,10,3.80
2011,07,07,06,11,6.10
2011,07,07,06,12,5.60
2011,07,07,06,13,5.10
2011,07,07,06,14,5.10
2011,07,07,06,15,3.90
2011,07,07,06,16,3.50
2011,07,07,06,17,3.60
2011,07,07,06,18,5.70
2011,07,07,06,19,4.80
2011,07,07,06,20,6.00
2011,07,07,06,21,5.60
2011,07,07,06,22,5.30
2011,07,07,06,23,4.70
2011,07,07,06,24,4.30
2011,07,07,06,25,3.20
2011,07,07,06,26,2.20
2011,07,07,06,27,4.30
2011,07,07,06,28,3.20
2011,07,07,06,29,3.70
2011,07,07,06,30,5.70
2011,07,07,06,31,3.10
2011,07,07,06,32,5.30
2011,07,07,06,33,5.10
2011,07,07,06,34,4.10
2011,07,07,06,35,2.60
2011,07,07,06,36,4.10
2011,07,07,06,37,6.40
2011,07,07,06,38,4.70
2011,07,07,06,39,8.10
2011,07,07,06,40,3.40
2011,07,07,06,41,5.60
2011,07,07,06,42,4.20
2011,07,07,06,43,5.00
2011,07,07,06,44,5.60
2011,07,07,06,45,2.80
2011,07,07,06,46,5.20
2011,07,07,06,47,3.90
2011,07,07,06,48,6.10
2011,07,07,06,49,5.30
2011,07,07,06,50,6.70
2011,07,07,06,51,3.30
2011,07,07,06,52,5.60
2011,07,07,06,53,3.10
2011,07,07,06,54,2.20
2011,07,07,06,55,3.20
2011,07,07,06,56,7.20
2011,07,07,06,57,11.20
2011,07,07,06,58,9.00
2011,07,07,06,59,6.30
2011,07,07,07,00,4.90
2011,07,07,07,01,7.50
2011,07,07,07,02,10.70
2011,07,07,07,03,3.90
2011,07,07,07,04,2.50
2011,07,07,07,05,5.30
2011,07,07,07,06,9.20
2011,07,07,07,07,10.10
2011,07,07,07,08,9.90
2011,07,07,07,09,6.80
2011,07,07,07,10,5.20
2011,07,07,07,11,5.60
2011,07,07,07,12,3.80
2011,07,07,07,13,5.00
2011,07,07,07,14,4.80
2011,07,07,07,15,6.80
2011,07,07,07,16,5.00
2011,07,07,07,17,5.60
2011,07,07,07,18,9.40
2011,07,07,07,19,5.60
2011,07,07,07,20,4.90
2011,07,07,07,21,3.10
2011,07,07,07,22,7.10
2011,07,07,07,23,5.90
2011,07,07,07,24,5.50
2011,07,07,07,25,5.30
2011,07,07,07,26,6.40
2011,07,07,07,27,6.10
2011,07,07,07,28,8.20
2011,07,07,07,29,6.60
2011,07,07,07,30,6.80
2011,07,07,07,31,7.10
2011,07,07,07,32,6.40
2011,07,07,07,33,4.60
2011,07,07,07,34,8.50
2011,07,07,07,35,5.80
2011,07,07,07,36,5.70
2011,07,07,07,37,6.40
2011,07,07,07,38,4.40
2011,07,07,07,39,3.50
2011,07,07,07,40,6.90
2011,07,07,07,41,6.20
2011,07,07,07,42,6.80
2011,07,07,07,43,7.30
2011,07,07,07,44,4.70
2011,07,07,07,45,5.30
2011,07,07,07,46,6.00
2011,07,07,07,47,4.70
2011,07,07,07,48,6.50
2011,07,07,07,49,5.60
2011,07,07,07,50,7.20
2011,07,07,07,51,7.00
2011,07,07,07,52,2.40
2011,07,07,07,53,4.10
2011,07,07,07,54,8.20
2011,07,07,07,55,3.10
2011,07,07,07,56,3.20
2011,07,07,07,57,4.70
2011,07,07,07,58,3.20
2011,07,07,07,59,2.60
2011,07,07,08,00,5.10
2011,07,07,08,01,6.20
2011,07,07,08,02,5.40
2011,07,07,08,03,4.00
2011,07,07,08,04,8.20
2011,07,07,08,05,5.00
2011,07,07,08,06,3.70
2011,07,07,08,07,5.20
2011,07,07,08,08,5.80
2011,07,07,08,09,6.80
2011,07,07,08,10,3.60
2011,07,07,08,11,5.90
2011,07,07,08,12,8.90
2011,07,07,08,13,6.20
2011,07,07,08,14,5.40
2011,07,07,08,15,5.60
2011,07,07,08,16,5.80
2011,07,07,08,17,7.00
2011,07,07,08,18,13.40
2011,07,07,08,19,8.10
2011,07,07,08,20,6.00
2011,07,07,08,21,4.80
2011,07,07,08,22,6.40
2011,07,07,08,23,8.40
2011,07,07,08,24,7.50
2011,07,07,08,25,3.60
2011,07,07,08,26,5.10
2011,07,07,08,27,4.10
2011,07,07,08,28,5.00
2011,07,07,08,29,3.20
2011,07,07,08,30,6.80
2011,07,07,08,31,4.80
2011,07,07,08,32,8.50
2011,07,07,08,33,9.50
2011,07,07,08,34,6.60
2011,07,07,08,35,5.30
2011,07,07,08,36,4.80
2011,07,07,08,37,1.80
2011,07,07,08,38,4.30
2011,07,07,08,39,7.10
2011,07,07,08,40,4.80
2011,07,07,08,41,4.40
2011,07,07,08,42,4.80
2011,07,07,08,43,7.70
2011,07,07,08,44,6.40
2011,07,07,08,45,7.00
2011,07,07,08,46,4.30
2011,07,07,08,47,5.60
2011,07,07,08,48,3.90
2011,07,07,08,49,5.90
2011,07,07,08,50,3.40
2011,07,07,08,51,6.40
2011,07,07,08,52,7.70
2011,07,07,08,53,7.60
2011,07,07,08,54,7.00
2011,07,07,08,55,11.00
2011,07,07,08,56,5.60
2011,07,07,08,57,2.90
2011,07,07,08,58,5.50
2011,07,07,08,59,4.60
2011,07,07,09,00,7.60
2011,07,07,09,01,4.70
2011,07,07,09,02,7.40
2011,07,07,09,03,12.10
2011,07,07,09,04,7.20
2011,07,07,09,05,8.80
2011,07,07,09,06,2.60
2011,07,07,09,07,6.00
2011,07,07,09,08,4.90
2011,07,07,09,09,7.90
2011,07,07,09,10,6.80
2011,07,07,09,11,4.80
2011,07,07,09,12,3.30
2011,07,07,09,13,7.40
2011,07,07,09,14,5.60
2011,07,07,09,15,12.90
2011,07,07,09,16,5.30
2011,07,07,09,17,7.30
2011,07,07,09,18,6.80
2011,07,07,09,19,7.90
2011,07,07,09,20,10.10
2011,07,07,09,21,12.90
2011,07,07,09,22,6.00
2011,07,07,09,23,5.70
2011,07,07,09,24,4.30
2011,07,07,09,25,9.70
2011,07,07,09,26,11.90
2011,07,07,09,27,9.60
2011,07,07,09,28,9.10
2011,07,07,09,29,5.20
2011,07,07,09,30,6.60
2011,07,07,09,31,8.30
2011,07,07,09,32,6.30
2011,07,07,09,33,8.20
2011,07,07,09,34,7.40
2011,07,07,09,35,4.10
2011,07,07,09,36,2.50
2011,07,07,09,37,7.20
2011,07,07,09,38,6.30
2011,07,07,09,39,6.90
2011,07,07,09,40,10.40
2011,07,07,09,41,9.90
2011,07,07,09,42,7.90
2011,07,07,09,43,6.90
2011,07,07,09,44,7.70
2011,07,07,09,45,10.00
2011,07,07,09,46,15.00
2011,07,07,09,47,4.80
2011,07,07,09,48,10.60
2011,07,07,09,49,11.50
2011,07,07,09,50,9.30
2011,07,07,09,51,7.40
2011,07,07,09,52,5.50
2011,07,07,09,53,10.40
2011,07,07,09,54,7.50
2011,07,07,09,55,10.60
2011,07,07,09,56,10.60
2011,07,07,09,57,8.90
2011,07,07,09,58,10.10
2011,07,07,09,59,8.40
2011,07,07,10,00,5.60
2011,07,07,10,01,9.30
2011,07,07,10,02,7.90
2011,07,07,10,03,4.40
2011,07,07,10,04,12.20
2011,07,07,10,05,6.90
2011,07,07,10,06,3.60
2011,07,07,10,07,6.40
2011,07,07,10,08,8.00
2011,07,07,10,09,8.70
2011,07,07,10,10,11.70
2011,07,07,10,11,11.90
2011,07,07,10,12,8.90
2011,07,07,10,13,8.30
2011,07,07,10,14,8.20
2011,07,07,10,15,8.40
2011,07,07,10,16,6.90
2011,07,07,10,17,11.60
2011,07,07,10,18,10.10
2011,07,07,10,19,7.20
2011,07,07,10,20,13.70
2011,07,07,10,21,7.20
2011,07,07,10,22,4.60
2011,07,07,10,23,9.20
2011,07,07,10,24,18.30
2011,07,07,10,25,17.70
2011,07,07,10,26,9.20
2011,07,07,10,27,13.80
2011,07,07,10,28,8.70
2011,07,07,10,29,16.90
2011,07,07,10,30,8.40
2011,07,07,10,31,12.20
2011,07,07,10,32,9.40
2011,07,07,10,33,14.00
2011,07,07,10,34,9.20
2011,07,07,10,35,7.60
2011,07,07,10,36,10.50
2011,07,07,10,37,14.30
2011,07,07,10,38,9.90
2011,07,07,10,39,6.60
2011,07,07,10,40,9.60
2011,07,07,10,41,5.00
2011,07,07,10,42,5.30
2011,07,07,10,43,7.60
2011,07,07,10,44,9.30
2011,07,07,10,45,10.90
2011,07,07,10,46,8.40
2011,07,07,10,47,7.70
2011,07,07,10,48,6.40
2011,07,07,10,49,10.20
2011,07,07,10,50,14.60
2011,07,07,10,51,15.40
2011,07,07,10,52,11.00
2011,07,07,10,53,5.80
2011,07,07,10,54,8.70
2011,07,07,10,55,11.90
2011,07,07,10,56,10.50
2011,07,07,10,57,9.40
2011,07,07,10,58,9.90
2011,07,07,10,59,13.70
2011,07,07,11,00,10.50
2011,07,07,11,01,7.20
2011,07,07,11,02,14.10
2011,07,07,11,03,11.20
2011,07,07,11,04,10.30
2011,07,07,11,05,12.90
2011,07,07,11,06,7.70
2011,07,07,11,07,5.50
2011,07,07,11,08,9.70
2011,07,07,11,09,11.40
2011,07,07,11,10,8.40
2011,07,07,11,11,11.60
2011,07,07,11,12,10.90
2011,07,07,11,13,15.60
2011,07,07,11,14,12.20
2011,07,07,11,15,16.40
2011,07,07,11,16,9.40
2011,07,07,11,17,9.50
2011,07,07,11,18,11.10
2011,07,07,11,19,7.80
2011,07,07,11,20,7.60
2011,07,07,11,21,9.80
2011,07,07,11,22,10.20
2011,07,07,11,23,10.00
2011,07,07,11,24,11.60
2011,07,07,11,25,5.10
2011,07,07,11,26,10.80
2011,07,07,11,27,14.70
2011,07,07,11,28,14.50
2011,07,07,11,29,14.30
2011,07,07,11,30,15.20
2011,07,07,11,31,7.20
2011,07,07,11,32,7.90
2011,07,07,11,33,11.80
2011,07,07,11,34,9.70
2011,07,07,11,35,13.60
2011,07,07,11,36,12.90
2011,07,07,11,37,15.30
2011,07,07,11,38,10.50
2011,07,07,11,39,20.40
2011,07,07,11,40,10.00
2011,07,07,11,41,13.90
2011,07,07,11,42,11.80
2011,07,07,11,43,11.50
2011,07,07,11,44,13.40
2011,07,07,11,45,15.20
2011,07,07,11,46,18.00
2011,07,07,11,47,14.00
2011,07,07,11,48,14.90
2011,07,07,11,49,13.60
2011,07,07,11,50,10.30
2011,07,07,11,51,11.80
2011,07,07,11,52,11.90
2011,07,07,11,53,12.80
2011,07,07,11,54,12.90
2011,07,07,11,55,6.60
2011,07,07,11,56,13.40
2011,07,07,11,57,14.20
2011,07,07,11,58,10.60
2011,07,07,11,59,14.20
2011,07,07,12,00,12.20
2011,07,07,12,01,10.60
2011,07,07,12,02,10.80
2011,07,07,12,03,15.10
2011,07,07,12,04,11.10
2011,07,07,12,05,11.00
2011,07,07,12,06,10.90
2011,07,07,12,07,10.50
2011,07,07,12,08,17.00
2011,07,07,12,09,14.20
2011,07,07,12,10,14.20
2011,07,07,12,11,12.30
2011,07,07,12,12,13.60
2011,07,07,12,13,14.10
2011,07,07,12,14,17.70
2011,07,07,12,15,13.00
2011,07,07,12,16,13.90
2011,07,07,12,17,9.90
2011,07,07,12,18,11.40
2011,07,07,12,19,10.60
2011,07,07,12,20,15.40
2011,07,07,12,21,15.70
2011,07,07,12,22,13.40
2011,07,07,12,23,13.00
2011,07,07,12,24,10.10
2011,07,07,12,25,10.00
2011,07,07,12,26,18.80
2011,07,07,12,27,14.50
2011,07,07,12,28,14.60
2011,07,07,12,29,12.40
2011,07,07,12,30,16.70
2011,07,07,12,31,13.60
2011,07,07,12,32,12.60
2011,07,07,12,33,16.10
2011,07,07,12,34,17.10
2011,07,07,12,35,18.30
2011,07,07,12,36,18.40
2011,07,07,12,37,16.10
2011,07,07,12,38,17.60
2011,07,07,12,39,15.80
2011,07,07,12,40,18.40
2011,07,07,12,41,18.90
2011,07,07,12,42,20.40
2011,07,07,12,43,9.90
2011,07,07,12,44,14.80
2011,07,07,12,45,20.00
2011,07,07,12,46,12.00
2011,07,07,12,47,9.40
2011,07,07,12,48,15.20
2011,07,07,12,49,19.30
2011,07,07,12,50,14.20
2011,07,07,12,51,16.70
2011,07,07,12,52,14.50
2011,07,07,12,53,19.50
2011,07,07,12,54,18.90
2011,07,07,12,55,13.60
2011,07,07,12,56,16.80
2011,07,07,12,57,16.40
2011,07,07,12,58,18.70
2011,07,07,12,59,13.10
2011,07,07,13,00,20.20
2011,07,07,13,01,12.50
2011,07,07,13,02,14.90
2011,07,07,13,03,13.20
2011,07,07,13,04,16.10
2011,07,07,13,05,10.30
2011,07,07,13,06,12.10
2011,07,07,13,07,14.70
2011,07,07,13,08,16.20
2011,07,07,13,09,13.20
2011,07,07,13,10,12.00
2011,07,07,13,11,15.30
2011,07,07,13,12,12.90
2011,07,07,13,13,8.80
2011,07,07,13,14,14.40
2011,07,07,13,15,14.20
2011,07,07,13,16,22.40
2011,07,07,13,17,20.90
2011,07,07,13,18,13.30
2011,07,07,13,19,17.20
2011,07,07,13,20,19.30
2011,07,07,13,21,20.20
2011,07,07,13,22,17.40
2011,07,07,13,23,13.40
2011,07,07,13,24,17.50
2011,07,07,13,25,19.30
2011,07,07,13,26,10.90
2011,07,07,13,27,11.70
2011,07,07,13,28,15.10
2011,07,07,13,29,11.30
2011,07,07,13,30,14.90
2011,07,07,13,31,15.80
2011,07,07,13,32,10.90
2011,07,07,13,33,17.00
2011,07,07,13,34,11.70
2011,07,07,13,35,18.80
2011,07,07,13,36,15.30
2011,07,07,13,37,14.90
2011,07,07,13,38,20.50
2011,07,07,13,39,13.40
2011,07,07,13,40,16.60
2011,07,07,13,41,22.10
2011,07,07,13,42,16.60
2011,07,07,13,43,19.20
2011,07,07,13,44,18.40
2011,07,07,13,45,19.30
2011,07,07,13,46,15.20
2011,07,07,13,47,16.10
2011,07,07,13,48,16.80
2011,07,07,13,49,13.10
2011,07,07,13,50,10.60
2011,07,07,13,51,12.40
2011,07,07,13,52,17.50
2011,07,07,13,53,13.00
2011,07,07,13,54,10.50
2011,07,07,13,55,12.70
2011,07,07,13,56,10.60
2011,07,07,13,57,12.00
2011,07,07,13,58,18.60
2011,07,07,13,59,13.30
2011,07,07,14,00,15.70
2011,07,07,14,01,9.50
2011,07,07,14,02,15.30
2011,07,07,14,03,16.70
2011,07,07,14,04,10.60
2011,07,07,14,05,11.70
2011,07,07,14,06,19.30
2011,07,07,14,07,22.00
2011,07,07,14,08,17.90
2011,07,07,14,09,12.00
2011,07,07,14,10,9.50
2011,07,07,14,11,10.80
2011,07,07,14,12,12.10
2011,07,07,14,13,13.00
2011,07,07,14,14,15.80
2011,07,07,14,15,21.30
2011,07,07,14,16,19.70
2011,07,07,14,17,8.50
2011,07,07,14,18,9.10
2011,07,07,14,19,19.20
2011,07,07,14,20,13.40
2011,07,07,14,21,14.00
2011,07,07,14,22,8.10
2011,07,07,14,23,9.70
2011,07,07,14,24,8.00
2011,07,07,14,25,17.90
2011,07,07,14,26,24.10
2011,07,07,14,27,11.70
2011,07,07,14,28,9.00
2011,07,07,14,29,13.40
2011,07,07,14,30,10.10
2011,07,07,14,31,12.50
2011,07,07,14,32,12.90
2011,07,07,14,33,13.60
2011,07,07,14,34,8.00
2011,07,07,14,35,17.20
2011,07,07,14,36,18.10
2011,07,07,14,37,10.20
2011,07,07,14,38,16.00
2011,07,07,14,39,23.60
2011,07,07,14,40,9.80
2011,07,07,14,41,18.30
2011,07,07,14,42,17.20
2011,07,07,14,43,13.60
2011,07,07,14,44,12.90
2011,07,07,14,45,21.30
2011,07,07,14,46,23.60
2011,07,07,14,47,17.20
2011,07,07,14,48,24.30
2011,07,07,14,49,21.10
2011,07,07,14,50,16.50
2011,07,07,14,51,18.80
2011,07,07,14,52,24.10
2011,07,07,14,53,22.80
2011,07,07,14,54,11.90
2011,07,07,14,55,17.30
2011,07,07,14,56,14.50
2011,07,07,14,57,16.80
2011,07,07,14,58,22.80
2011,07,07,14,59,26.30
2011,07,07,15,00,19.60
2011,07,07,15,01,13.50
2011,07,07,15,02,24.40
2011,07,07,15,03,20.10
2011,07,07,15,04,24.10
2011,07,07,15,05,17.10
2011,07,07,15,06,17.90
2011,07,07,15,07,10.40
2011,07,07,15,08,20.40
2011,07,07,15,09,24.10
2011,07,07,15,10,21.30
2011,07,07,15,11,18.70
2011,07,07,15,12,9.70
2011,07,07,15,13,27.40
2011,07,07,15,14,24.10
2011,07,07,15,15,17.70
2011,07,07,15,16,15.90
2011,07,07,15,17,26.00
2011,07,07,15,18,15.90
2011,07,07,15,19,10.60
2011,07,07,15,20,17.80
2011,07,07,15,21,23.50
2011,07,07,15,22,20.40
2011,07,07,15,23,16.70
2011,07,07,15,24,20.20
2011,07,07,15,25,18.00
2011,07,07,15,26,19.60
2011,07,07,15,27,6.60
2011,07,07,15,28,16.20
2011,07,07,15,29,16.90
2011,07,07,15,30,15.40
2011,07,07,15,31,13.90
2011,07,07,15,32,17.40
2011,07,07,15,33,14.70
2011,07,07,15,34,20.10
2011,07,07,15,35,27.00
2011,07,07,15,36,20.20
2011,07,07,15,37,17.90
2011,07,07,15,38,15.30
2011,07,07,15,39,19.60
2011,07,07,15,40,19.50
2011,07,07,15,41,15.30
2011,07,07,15,42,20.40
2011,07,07,15,43,19.50
2011,07,07,15,44,13.20
2011,07,07,15,45,10.80
2011,07,07,15,46,20.60
2011,07,07,15,47,18.80
2011,07,07,15,48,16.40
2011,07,07,15,49,16.90
2011,07,07,15,50,15.40
2011,07,07,15,51,7.80
2011,07,07,15,52,10.90
2011,07,07,15,53,11.60
2011,07,07,15,54,12.30
2011,07,07,15,55,20.20
2011,07,07,15,56,17.20
2011,07,07,15,57,22.40
2011,07,07,15,58,12.90
2011,07,07,15,59,17.90
2011,07,07,16,00,15.00
2011,07,07,16,01,24.50
2011,07,07,16,02,23.10
2011,07,07,16,03,14.70
2011,07,07,16,04,11.10
2011,07,07,16,05,20.80
2011,07,07,16,06,19.70
2011,07,07,16,07,17.40
2011,07,07,16,08,17.40
2011,07,07,16,09,13.00
2011,07,07,16,10,19.30
2011,07,07,16,11,20.20
2011,07,07,16,12,15.30
2011,07,07,16,13,29.20
2011,07,07,16,14,15.60
2011,07,07,16,15,14.90
2011,07,07,16,16,21.70
2011,07,07,16,17,22.10
2011,07,07,16,18,17.20
2011,07,07,16,19,21.60
2011,07,07,16,20,15.10
2011,07,07,16,21,16.10
2011,07,07,16,22,17.50
2011,07,07,16,23,20.00
2011,07,07,16,24,20.40
2011,07,07,16,25,19.60
2011,07,07,16,26,16.70
2011,07,07,16,27,12.50
2011,07,07,16,28,21.30
2011,07,07,16,29,19.50
2011,07,07,16,30,13.60
2011,07,07,16,31,20.90
2011,07,07,16,32,17.50
2011,07,07,16,33,15.20
2011,07,07,16,34,13.50
2011,07,07,16,35,18.50
2011,07,07,16,36,11.80
2011,07,07,16,37,16.70
2011,07,07,16,38,23.80
2011,07,07,16,39,28.00
2011,07,07,16,40,20.40
2011,07,07,16,41,31.90
2011,07,07,16,42,22.10
2011,07,07,16,43,21.30
2011,07,07,16,44,17.90
2011,07,07,16,45,16.70
2011,07,07,16,46,14.60
2011,07,07,16,47,23.20
2011,07,07,16,48,23.90
2011,07,07,16,49,26.80
2011,07,07,16,50,19.10
2011,07,07,16,51,15.60
2011,07,07,16,52,18.70
2011,07,07,16,53,18.60
2011,07,07,16,54,14.90
2011,07,07,16,55,25.10
2011,07,07,16,56,14.30
2011,07,07,16,57,21.90
2011,07,07,16,58,23.60
2011,07,07,16,59,19.50
2011,07,07,17,00,21.20
2011,07,07,17,01,11.60
2011,07,07,17,02,18.00
2011,07,07,17,03,19.90
2011,07,07,17,04,17.10
2011,07,07,17,05,25.80
2011,07,07,17,06,19.20
2011,07,07,17,07,14.10
2011,07,07,17,08,16.10
2011,07,07,17,09,14.10
2011,07,07,17,10,21.20
2011,07,07,17,11,22.20
2011,07,07,17,12,11.00
2011,07,07,17,13,14.60
2011,07,07,17,14,9.90
2011,07,07,17,15,17.40
2011,07,07,17,16,12.80
2011,07,07,17,17,22.50
2011,07,07,17,18,12.60
2011,07,07,17,19,19.60
2011,07,07,17,20,17.10
2011,07,07,17,21,16.30
2011,07,07,17,22,9.70
2011,07,07,17,23,16.70
2011,07,07,17,24,15.00
2011,07,07,17,25,13.50
2011,07,07,17,26,8.60
2011,07,07,17,27,9.80
2011,07,07,17,28,12.30
2011,07,07,17,29,16.20
2011,07,07,17,30,12.20
2011,07,07,17,31,14.10
2011,07,07,17,32,16.20
2011,07,07,17,33,16.20
2011,07,07,17,34,17.20
2011,07,07,17,35,25.30
2011,07,07,17,36,25.50
2011,07,07,17,37,18.20
2011,07,07,17,38,22.70
2011,07,07,17,39,21.60
2011,07,07,17,40,20.30
2011,07,07,17,41,13.90
2011,07,07,17,42,27.60
2011,07,07,17,43,25.60
2011,07,07,17,44,27.00
2011,07,07,17,45,15.90
2011,07,07,17,46,12.50
2011,07,07,17,47,23.80